DAL89W KMCO-GOBD

Flight info

Callsign DAL89W
Flight time N/A
Altitude 37000
Route MZULO3 LENDS M203 SNAGY/M080F370 DCT 29N060W 29N057W DCT 2950N DCT 2945N DCT 28N042W DCT 2740N DCT 24N034W DCT ULTEM/N0467F370 UR976 LUMPO R976 LIGOV LIGOV1A
Aircraft A339/H-SADE1E2E3GHIJ3J5M1P2RWXY/LB2D1

Departure

Time N/A
Airport Orlando International Airport (KMCO)

Arrival

Time 2026-04-25 21:49
Airport Blaise Diagne International Airport (GOBD)
Time Latitude Longitude Altitude Speed Heading
2026-04-25 16:04 29.54551 -67.76595 37030 ft 490 kts 93°
2026-04-25 16:04 29.54227 -67.68711 37029 ft 491 kts 94°
2026-04-25 16:05 29.53899 -67.60867 37029 ft 492 kts 94°
2026-04-25 16:06 29.53410 -67.49370 37028 ft 492 kts 94°
2026-04-25 16:06 29.53071 -67.41549 37026 ft 493 kts 94°
2026-04-25 16:07 29.52725 -67.33682 37024 ft 494 kts 94°
2026-04-25 16:07 29.52374 -67.25782 37026 ft 494 kts 94°
2026-04-25 16:08 29.52020 -67.17933 37028 ft 495 kts 94°
2026-04-25 16:08 29.51659 -67.10046 37028 ft 494 kts 94°
2026-04-25 16:09 29.51296 -67.02192 37029 ft 495 kts 95°
2026-04-25 16:09 29.50926 -66.94275 37031 ft 495 kts 95°
2026-04-25 16:10 29.50553 -66.86414 37031 ft 497 kts 95°
2026-04-25 16:10 29.50172 -66.78499 37029 ft 497 kts 95°
2026-04-25 16:11 29.49790 -66.70637 37032 ft 498 kts 95°
2026-04-25 16:11 29.49398 -66.62687 37034 ft 499 kts 95°
2026-04-25 16:12 29.49003 -66.54765 37033 ft 500 kts 95°
2026-04-25 16:12 29.48603 -66.46808 37031 ft 502 kts 95°
2026-04-25 16:13 29.48196 -66.38844 37032 ft 502 kts 96°
2026-04-25 16:13 29.47783 -66.30866 37029 ft 503 kts 96°
2026-04-25 16:14 29.47368 -66.22875 37029 ft 503 kts 96°
2026-04-25 16:14 29.46945 -66.14899 37031 ft 503 kts 97°
2026-04-25 16:15 29.46518 -66.06854 37034 ft 505 kts 97°
2026-04-25 16:15 29.46085 -65.98848 37027 ft 506 kts 97°
2026-04-25 16:16 29.45644 -65.90801 37029 ft 506 kts 97°
2026-04-25 16:16 29.45199 -65.82765 37025 ft 505 kts 97°
2026-04-25 16:17 29.44756 -65.74791 37028 ft 502 kts 98°
2026-04-25 16:17 29.44303 -65.66797 37027 ft 503 kts 98°
2026-04-25 16:18 29.43850 -65.58852 37027 ft 504 kts 98°
2026-04-25 16:18 29.43386 -65.50839 37026 ft 505 kts 98°
2026-04-25 16:19 29.42923 -65.42825 37028 ft 504 kts 98°
2026-04-25 16:19 29.42448 -65.34771 37029 ft 505 kts 99°
2026-04-25 16:20 29.41730 -65.22731 37030 ft 505 kts 99°
2026-04-25 16:21 29.40996 -65.10643 37027 ft 506 kts 100°
2026-04-25 16:21 29.40502 -65.02647 37025 ft 506 kts 100°
2026-04-25 16:22 29.40001 -64.94551 37038 ft 509 kts 100°
2026-04-25 16:22 29.39492 -64.86525 37046 ft 510 kts 99°
2026-04-25 16:23 29.38978 -64.78412 37048 ft 511 kts 99°
2026-04-25 16:23 29.38464 -64.70290 37046 ft 512 kts 100°
2026-04-25 16:24 29.37944 -64.62183 37045 ft 511 kts 100°
2026-04-25 16:24 29.37423 -64.54105 37043 ft 511 kts 100°
2026-04-25 16:25 29.36887 -64.45953 37045 ft 512 kts 100°
2026-04-25 16:25 29.36350 -64.37835 37045 ft 512 kts 101°
2026-04-25 16:26 29.35809 -64.29710 37041 ft 511 kts 102°
2026-04-25 16:26 29.35257 -64.21571 37044 ft 513 kts 101°
2026-04-25 16:27 29.34693 -64.13357 37045 ft 517 kts 101°
2026-04-25 16:27 29.34135 -64.05204 37047 ft 515 kts 101°
2026-04-25 16:28 29.33562 -63.96904 37046 ft 517 kts 102°
2026-04-25 16:28 29.32992 -63.88748 37042 ft 517 kts 102°
2026-04-25 16:29 29.32410 -63.80501 37039 ft 518 kts 102°
2026-04-25 16:29 29.31830 -63.72333 37040 ft 517 kts 102°
2026-04-25 16:30 29.31243 -63.64154 37041 ft 517 kts 102°
2026-04-25 16:30 29.30641 -63.55892 37040 ft 518 kts 102°
2026-04-25 16:31 29.30056 -63.47759 37041 ft 516 kts 102°
2026-04-25 16:31 29.29449 -63.39574 37038 ft 516 kts 102°
2026-04-25 16:32 29.28833 -63.31294 37034 ft 518 kts 103°
2026-04-25 16:32 29.28221 -63.23112 37038 ft 517 kts 103°
2026-04-25 16:33 29.27596 -63.14867 37197 ft 521 kts 103°
2026-04-25 16:33 29.27284 -63.10781 37407 ft 521 kts 103°
2026-04-25 16:33 29.26971 -63.06626 37652 ft 521 kts 103°
2026-04-25 16:33 29.26654 -63.02506 37816 ft 522 kts 103°
2026-04-25 16:34 29.26336 -62.98363 37951 ft 523 kts 103°
2026-04-25 16:34 29.25687 -62.90015 38038 ft 525 kts 103°
2026-04-25 16:35 29.25041 -62.81690 38039 ft 525 kts 103°
2026-04-25 16:35 29.24383 -62.73376 38035 ft 526 kts 102°
2026-04-25 16:36 29.23724 -62.65015 38033 ft 526 kts 103°
2026-04-25 16:36 29.23062 -62.56692 38031 ft 523 kts 103°
2026-04-25 16:37 29.22390 -62.48375 38028 ft 527 kts 104°
2026-04-25 16:37 29.21711 -62.40030 38024 ft 527 kts 102°
2026-04-25 16:38 29.21042 -62.31765 38028 ft 525 kts 104°
2026-04-25 16:38 29.20360 -62.23468 38028 ft 525 kts 104°
2026-04-25 16:39 29.19666 -62.15141 38029 ft 523 kts 103°
2026-04-25 16:39 29.18972 -62.06843 38026 ft 523 kts 104°
2026-04-25 16:40 29.18275 -61.98541 38030 ft 523 kts 104°
2026-04-25 16:40 29.17568 -61.90264 38026 ft 523 kts 104°
2026-04-25 16:41 29.16860 -61.81986 38022 ft 525 kts 103°
2026-04-25 16:41 29.15796 -61.69573 38022 ft 524 kts 103°
2026-04-25 16:42 29.15062 -61.61248 38021 ft 528 kts 103°
2026-04-25 16:42 29.14338 -61.52928 38020 ft 524 kts 103°
2026-04-25 16:43 29.13598 -61.44642 38019 ft 529 kts 103°
2026-04-25 16:43 29.12860 -61.36300 38018 ft 527 kts 103°
2026-04-25 16:44 29.12113 -61.27980 38019 ft 526 kts 103°
2026-04-25 16:44 29.11359 -61.19657 38024 ft 527 kts 103°
2026-04-25 16:45 29.10608 -61.11338 38029 ft 527 kts 104°
2026-04-25 16:45 29.09844 -61.03027 38027 ft 529 kts 103°
2026-04-25 16:46 29.09073 -60.94625 38029 ft 528 kts 103°
2026-04-25 16:46 29.08420 -60.87616 38028 ft 530 kts 103°
2026-04-25 16:47 29.07505 -60.77808 38029 ft 532 kts 103°
2026-04-25 16:47 29.06722 -60.69430 38029 ft 530 kts 103°
2026-04-25 16:48 29.05927 -60.61056 38029 ft 529 kts 103°
2026-04-25 16:48 29.05129 -60.52698 38029 ft 530 kts 103°
2026-04-25 16:49 29.04324 -60.44308 38028 ft 530 kts 103°
2026-04-25 16:49 29.03518 -60.35956 38028 ft 531 kts 103°
2026-04-25 16:50 29.02699 -60.27530 38029 ft 532 kts 104°
2026-04-25 16:50 29.01886 -60.19170 38026 ft 533 kts 103°
2026-04-25 16:51 29.01056 -60.10748 38022 ft 534 kts 103°
2026-04-25 16:51 29.00361 -60.03719 38024 ft 535 kts 102°
2026-04-25 16:52 28.99995 -59.93689 38028 ft 542 kts 94°
2026-04-25 16:52 29.00110 -59.85064 38028 ft 542 kts 94°
2026-04-25 16:53 29.00266 -59.72169 38031 ft 542 kts 94°
2026-04-25 16:54 29.00346 -59.63618 38024 ft 543 kts 95°
2026-04-25 16:54 29.00415 -59.55017 38028 ft 542 kts 94°
2026-04-25 16:55 29.00477 -59.46399 38030 ft 543 kts 94°
2026-04-25 16:55 29.00538 -59.37828 38028 ft 544 kts 94°
2026-04-25 16:56 29.00592 -59.29184 38029 ft 542 kts 95°
2026-04-25 16:56 29.00638 -59.20590 38030 ft 543 kts 95°
2026-04-25 16:57 29.00684 -59.11988 38029 ft 541 kts 94°
2026-04-25 16:57 29.00718 -59.03439 38028 ft 541 kts 94°
2026-04-25 16:58 29.00747 -58.94867 38027 ft 542 kts 94°
2026-04-25 16:58 29.00773 -58.86247 38028 ft 543 kts 94°
2026-04-25 16:59 29.00792 -58.77631 38028 ft 543 kts 94°
2026-04-25 16:59 29.00812 -58.68991 38030 ft 543 kts 94°
2026-04-25 17:00 29.00819 -58.60435 38028 ft 544 kts 94°
2026-04-25 17:00 29.00824 -58.51821 38027 ft 545 kts 94°
2026-04-25 17:01 29.00824 -58.43169 38032 ft 543 kts 95°
2026-04-25 17:01 29.00813 -58.34549 38030 ft 544 kts 95°
2026-04-25 17:02 29.00798 -58.25905 38028 ft 545 kts 95°
2026-04-25 17:02 29.00781 -58.17333 38027 ft 544 kts 95°
2026-04-25 17:03 29.00759 -58.08602 38024 ft 545 kts 95°
2026-04-25 17:03 29.00729 -57.99946 38017 ft 544 kts 95°
2026-04-25 17:04 29.00691 -57.91318 38002 ft 545 kts 95°
2026-04-25 17:04 29.00650 -57.82672 38000 ft 547 kts 93°
2026-04-25 17:05 29.00606 -57.74022 38006 ft 549 kts 94°
2026-04-25 17:05 29.00532 -57.60990 38004 ft 547 kts 95°
2026-04-25 17:06 29.00469 -57.52260 38011 ft 548 kts 94°
2026-04-25 17:06 29.00400 -57.43554 38006 ft 550 kts 93°
2026-04-25 17:07 29.00332 -57.34887 38001 ft 551 kts 94°
2026-04-25 17:07 29.00256 -57.26134 38005 ft 550 kts 94°
2026-04-25 17:08 29.00173 -57.17364 37999 ft 552 kts 94°
2026-04-25 17:08 29.00084 -57.08619 38006 ft 553 kts 95°
2026-04-25 17:09 29.00005 -56.99834 38007 ft 552 kts 92°
2026-04-25 17:09 29.00183 -56.91049 38010 ft 555 kts 90°
2026-04-25 17:10 29.00430 -56.82217 37999 ft 555 kts 91°
2026-04-25 17:10 29.00649 -56.73370 37989 ft 556 kts 90°
2026-04-25 17:11 29.00862 -56.64554 38002 ft 556 kts 90°
2026-04-25 17:11 29.01071 -56.55689 37999 ft 556 kts 92°
2026-04-25 17:12 29.01264 -56.46871 37992 ft 556 kts 91°
2026-04-25 17:12 29.01456 -56.37987 37999 ft 558 kts 91°
2026-04-25 17:13 29.01610 -56.30616 37992 ft 557 kts 91°
2026-04-25 17:13 29.01823 -56.20299 38003 ft 556 kts 92°
2026-04-25 17:14 29.01996 -56.11465 38005 ft 557 kts 91°
2026-04-25 17:14 29.02163 -56.02655 37998 ft 558 kts 91°
2026-04-25 17:15 29.02328 -55.93792 38000 ft 558 kts 92°
2026-04-25 17:15 29.02477 -55.84951 38006 ft 559 kts 91°
2026-04-25 17:16 29.02634 -55.76061 38013 ft 559 kts 92°
2026-04-25 17:16 29.02779 -55.67199 38010 ft 558 kts 92°
2026-04-25 17:17 29.02916 -55.58337 38006 ft 558 kts 91°
2026-04-25 17:17 29.03054 -55.49473 38008 ft 559 kts 91°
2026-04-25 17:18 29.03179 -55.40596 38006 ft 560 kts 91°
2026-04-25 17:18 29.03308 -55.31713 38006 ft 558 kts 92°
2026-04-25 17:19 29.03419 -55.22854 38005 ft 560 kts 92°
2026-04-25 17:19 29.03528 -55.13980 38009 ft 560 kts 92°
2026-04-25 17:20 29.03633 -55.05111 38014 ft 558 kts 92°
2026-04-25 17:20 29.03737 -54.96271 38004 ft 557 kts 92°
2026-04-25 17:21 29.03825 -54.87464 37996 ft 557 kts 92°
2026-04-25 17:21 29.03909 -54.78558 38007 ft 558 kts 92°
2026-04-25 17:22 29.03978 -54.71197 37994 ft 559 kts 91°
2026-04-25 17:22 29.04068 -54.60840 37999 ft 560 kts 91°
2026-04-25 17:23 29.04143 -54.51908 37996 ft 559 kts 91°
2026-04-25 17:23 29.04201 -54.43032 37989 ft 561 kts 91°
2026-04-25 17:24 29.04260 -54.34115 37983 ft 561 kts 92°
2026-04-25 17:24 29.04315 -54.25195 37980 ft 561 kts 91°
2026-04-25 17:25 29.04361 -54.16242 37984 ft 562 kts 92°
2026-04-25 17:25 29.04403 -54.07267 37991 ft 562 kts 92°
2026-04-25 17:26 29.04440 -53.98375 37983 ft 563 kts 92°
2026-04-25 17:26 29.04466 -53.89431 37979 ft 564 kts 92°
2026-04-25 17:27 29.04490 -53.80398 37990 ft 562 kts 92°
2026-04-25 17:27 29.04507 -53.72952 37989 ft 562 kts 92°
2026-04-25 17:28 29.04512 -53.62560 37984 ft 563 kts 92°
2026-04-25 17:28 29.04522 -53.53614 37987 ft 564 kts 91°
2026-04-25 17:29 29.04519 -53.44672 37984 ft 563 kts 91°
2026-04-25 17:29 29.04514 -53.35762 37988 ft 563 kts 91°
2026-04-25 17:30 29.04507 -53.26791 37989 ft 564 kts 92°
2026-04-25 17:30 29.04485 -53.17858 37982 ft 564 kts 92°
2026-04-25 17:31 29.04464 -53.08886 37980 ft 564 kts 92°
2026-04-25 17:31 29.04431 -52.99931 37981 ft 564 kts 92°
2026-04-25 17:32 29.04397 -52.91000 37978 ft 564 kts 92°
2026-04-25 17:32 29.04352 -52.82046 37978 ft 564 kts 92°
2026-04-25 17:33 29.04306 -52.73122 37979 ft 564 kts 92°
2026-04-25 17:33 29.04248 -52.64125 37985 ft 565 kts 92°
2026-04-25 17:34 29.04193 -52.55164 37985 ft 565 kts 92°
2026-04-25 17:34 29.04126 -52.46226 37981 ft 565 kts 92°
2026-04-25 17:35 29.04049 -52.37283 37981 ft 566 kts 92°
2026-04-25 17:35 29.03974 -52.28287 37971 ft 566 kts 92°
2026-04-25 17:36 29.03885 -52.19300 37977 ft 567 kts 92°
2026-04-25 17:36 29.03796 -52.10288 37965 ft 567 kts 93°
2026-04-25 17:37 29.03704 -52.01270 37963 ft 568 kts 93°
2026-04-25 17:37 29.03603 -51.92313 37968 ft 557 kts 92°
2026-04-25 17:38 29.03514 -51.84915 37970 ft 563 kts 93°
2026-04-25 17:38 29.03381 -51.74482 37966 ft 569 kts 93°
2026-04-25 17:39 29.03259 -51.65424 37958 ft 571 kts 92°
2026-04-25 17:39 29.03128 -51.56353 37976 ft 571 kts 92°
2026-04-25 17:40 29.03000 -51.47361 37956 ft 571 kts 92°
2026-04-25 17:40 29.02862 -51.38272 37972 ft 571 kts 92°
2026-04-25 17:41 29.02715 -51.29243 37957 ft 571 kts 93°
2026-04-25 17:41 29.02567 -51.20145 37962 ft 571 kts 93°
2026-04-25 17:42 29.02404 -51.11109 37970 ft 572 kts 93°
2026-04-25 17:42 29.02245 -51.02062 37961 ft 570 kts 93°
2026-04-25 17:43 29.02075 -50.93017 37971 ft 571 kts 92°
2026-04-25 17:43 29.01900 -50.83959 37981 ft 573 kts 92°
2026-04-25 17:44 29.01716 -50.74845 37978 ft 573 kts 93°
2026-04-25 17:44 29.01530 -50.65809 37980 ft 574 kts 92°
2026-04-25 17:45 29.01367 -50.58200 37993 ft 574 kts 92°
2026-04-25 17:45 29.01135 -50.47553 37985 ft 574 kts 93°
2026-04-25 17:46 29.00925 -50.38486 37999 ft 575 kts 92°
2026-04-25 17:46 29.00717 -50.29352 37981 ft 574 kts 92°
2026-04-25 17:47 29.00496 -50.20186 37982 ft 574 kts 93°
2026-04-25 17:47 29.00271 -50.11097 37986 ft 576 kts 93°
2026-04-25 17:48 29.00011 -49.97420 37994 ft 577 kts 90°
2026-04-25 17:49 29.00160 -49.88290 37996 ft 577 kts 89°
2026-04-25 17:49 29.00341 -49.79060 37994 ft 577 kts 89°
2026-04-25 17:50 29.00504 -49.69968 38005 ft 576 kts 89°
2026-04-25 17:50 29.00650 -49.60826 37997 ft 577 kts 89°
2026-04-25 17:51 29.00796 -49.51666 37995 ft 576 kts 90°
2026-04-25 17:51 29.00923 -49.42541 38000 ft 576 kts 89°
2026-04-25 17:52 29.01054 -49.33456 38006 ft 575 kts 90°
2026-04-25 17:52 29.01172 -49.24310 37998 ft 576 kts 89°
2026-04-25 17:53 29.01286 -49.15099 38009 ft 576 kts 90°
2026-04-25 17:53 29.01396 -49.05960 38011 ft 575 kts 90°
2026-04-25 17:54 29.01499 -48.96843 38015 ft 575 kts 89°
2026-04-25 17:54 29.01592 -48.87754 38009 ft 575 kts 90°
2026-04-25 17:55 29.01682 -48.78601 38017 ft 575 kts 90°
2026-04-25 17:55 29.01767 -48.69545 38003 ft 574 kts 89°
2026-04-25 17:56 29.01839 -48.60448 38016 ft 574 kts 89°
2026-04-25 17:56 29.01913 -48.51350 38016 ft 572 kts 89°
2026-04-25 17:57 29.01981 -48.42304 38020 ft 573 kts 90°
2026-04-25 17:57 29.02035 -48.33223 38020 ft 572 kts 90°
2026-04-25 17:58 29.02091 -48.24137 38020 ft 572 kts 89°
2026-04-25 17:58 29.02141 -48.15110 38027 ft 571 kts 90°
2026-04-25 17:59 29.02179 -48.06015 38019 ft 571 kts 90°
2026-04-25 17:59 29.02212 -47.96994 38023 ft 570 kts 89°
2026-04-25 18:00 29.02238 -47.87944 38028 ft 570 kts 89°
2026-04-25 18:00 29.02262 -47.78891 38028 ft 570 kts 89°
2026-04-25 18:01 29.02282 -47.69865 38026 ft 570 kts 89°
2026-04-25 18:01 29.02296 -47.60849 38038 ft 570 kts 89°
2026-04-25 18:02 29.02295 -47.51809 38032 ft 569 kts 89°
2026-04-25 18:02 29.02295 -47.42780 38037 ft 570 kts 90°
2026-04-25 18:03 29.02284 -47.33781 38029 ft 570 kts 90°
2026-04-25 18:03 29.02270 -47.24719 38037 ft 569 kts 90°
2026-04-25 18:04 29.02251 -47.15645 38046 ft 570 kts 90°
2026-04-25 18:04 29.02226 -47.06559 38042 ft 570 kts 90°
2026-04-25 18:05 29.02189 -46.97560 38050 ft 570 kts 89°
2026-04-25 18:05 29.02154 -46.88535 38057 ft 569 kts 90°
2026-04-25 18:06 29.02111 -46.79495 38052 ft 569 kts 90°
2026-04-25 18:06 29.02061 -46.70464 38049 ft 570 kts 90°
2026-04-25 18:07 29.02005 -46.61429 38050 ft 568 kts 90°
2026-04-25 18:07 29.01940 -46.52430 38045 ft 568 kts 90°
2026-04-25 18:08 29.01868 -46.43464 38043 ft 567 kts 89°
2026-04-25 18:08 29.01793 -46.34447 38042 ft 567 kts 90°
2026-04-25 18:09 29.01718 -46.25417 38044 ft 567 kts 90°
2026-04-25 18:09 29.01636 -46.16481 38041 ft 567 kts 90°
2026-04-25 18:10 29.01544 -46.07433 38053 ft 567 kts 90°
2026-04-25 18:10 29.01446 -45.98438 38046 ft 567 kts 90°
2026-04-25 18:11 29.01341 -45.89511 38052 ft 565 kts 89°
2026-04-25 18:11 29.01232 -45.80507 38050 ft 565 kts 90°
2026-04-25 18:12 29.01119 -45.71586 38056 ft 566 kts 90°
2026-04-25 18:12 29.00997 -45.62618 38048 ft 565 kts 90°
2026-04-25 18:13 29.00870 -45.53649 38055 ft 565 kts 90°
2026-04-25 18:13 29.00734 -45.44695 38064 ft 565 kts 90°
2026-04-25 18:14 29.00526 -45.31273 38050 ft 565 kts 90°
2026-04-25 18:14 29.00378 -45.22317 38064 ft 565 kts 90°
2026-04-25 18:15 29.00228 -45.13329 38065 ft 565 kts 90°
2026-04-25 18:15 28.99777 -45.04410 38059 ft 565 kts 97°
2026-04-25 18:16 28.98358 -44.95609 38063 ft 563 kts 107°
2026-04-25 18:17 28.94584 -44.82966 38067 ft 562 kts 113°
2026-04-25 18:17 28.91825 -44.74579 38066 ft 562 kts 114°
2026-04-25 18:18 28.89104 -44.66222 38065 ft 563 kts 113°
2026-04-25 18:18 28.86396 -44.57843 38069 ft 562 kts 112°
2026-04-25 18:19 28.83697 -44.49493 38070 ft 563 kts 113°
2026-04-25 18:19 28.80980 -44.41105 38072 ft 563 kts 113°
2026-04-25 18:20 28.78219 -44.32617 38063 ft 563 kts 113°
2026-04-25 18:20 28.75495 -44.24260 38068 ft 563 kts 113°
2026-04-25 18:21 28.72739 -44.15820 38068 ft 563 kts 113°
2026-04-25 18:21 28.69989 -44.07420 38069 ft 564 kts 113°
2026-04-25 18:22 28.67224 -43.98991 38074 ft 563 kts 113°
2026-04-25 18:22 28.64469 -43.90640 38082 ft 564 kts 113°
2026-04-25 18:23 28.61687 -43.82191 38084 ft 564 kts 113°
2026-04-25 18:23 28.58928 -43.73843 38083 ft 564 kts 113°
2026-04-25 18:24 28.56166 -43.65523 38079 ft 565 kts 112°
2026-04-25 18:24 28.53373 -43.57115 38081 ft 565 kts 112°
2026-04-25 18:25 28.50576 -43.48697 38090 ft 564 kts 113°
2026-04-25 18:25 28.47777 -43.40310 38080 ft 565 kts 112°
2026-04-25 18:26 28.44964 -43.31902 38087 ft 565 kts 113°
2026-04-25 18:26 28.42167 -43.23566 38095 ft 565 kts 113°
2026-04-25 18:27 28.39375 -43.15253 38081 ft 565 kts 113°
2026-04-25 18:27 28.36563 -43.06921 38089 ft 566 kts 113°
2026-04-25 18:28 28.33737 -42.98541 38084 ft 566 kts 113°
2026-04-25 18:28 28.30918 -42.90201 38088 ft 565 kts 113°
2026-04-25 18:29 28.26667 -42.77697 38089 ft 567 kts 113°
2026-04-25 18:30 28.21000 -42.61053 38077 ft 567 kts 112°
2026-04-25 18:30 28.18156 -42.52730 38093 ft 568 kts 113°
2026-04-25 18:31 28.15288 -42.44364 38089 ft 568 kts 113°
2026-04-25 18:31 28.12438 -42.36071 38091 ft 568 kts 112°
2026-04-25 18:32 28.09572 -42.27744 38087 ft 568 kts 113°
2026-04-25 18:32 28.06694 -42.19397 38078 ft 569 kts 113°
2026-04-25 18:33 28.03800 -42.11027 38080 ft 569 kts 114°
2026-04-25 18:33 28.00876 -42.02647 38088 ft 569 kts 115°
2026-04-25 18:34 27.97421 -41.94644 38093 ft 564 kts 122°
2026-04-25 18:34 27.93567 -41.86853 38098 ft 566 kts 123°
2026-04-25 18:35 27.89733 -41.79126 38092 ft 566 kts 122°
2026-04-25 18:35 27.85897 -41.71333 38095 ft 566 kts 122°
2026-04-25 18:36 27.82044 -41.63504 38096 ft 566 kts 122°
2026-04-25 18:36 27.78202 -41.55716 38101 ft 566 kts 122°
2026-04-25 18:37 27.74385 -41.47980 38098 ft 566 kts 122°
2026-04-25 18:37 27.70526 -41.40184 38100 ft 566 kts 122°
2026-04-25 18:38 27.66694 -41.32462 38097 ft 566 kts 122°
2026-04-25 18:38 27.62847 -41.24709 38097 ft 566 kts 123°
2026-04-25 18:39 27.59016 -41.17006 38100 ft 566 kts 123°
2026-04-25 18:39 27.55180 -41.09312 38103 ft 565 kts 123°
2026-04-25 18:40 27.51317 -41.01571 38101 ft 566 kts 122°
2026-04-25 18:40 27.47470 -40.93877 38101 ft 566 kts 122°
2026-04-25 18:41 27.43593 -40.86148 38095 ft 566 kts 122°
2026-04-25 18:41 27.39752 -40.78489 38096 ft 566 kts 122°
2026-04-25 18:42 27.36507 -40.72039 38095 ft 566 kts 122°
2026-04-25 18:42 27.31993 -40.63076 38093 ft 566 kts 122°
2026-04-25 18:43 27.28135 -40.55439 38090 ft 566 kts 122°
2026-04-25 18:43 27.24244 -40.47739 38093 ft 566 kts 122°
2026-04-25 18:44 27.20377 -40.40098 38086 ft 565 kts 122°
2026-04-25 18:44 27.16480 -40.32418 38084 ft 566 kts 122°
2026-04-25 18:45 27.12582 -40.24749 38093 ft 566 kts 123°
2026-04-25 18:45 27.08684 -40.17091 38088 ft 566 kts 122°
2026-04-25 18:46 27.04790 -40.09440 38090 ft 567 kts 122°
2026-04-25 18:46 27.00879 -40.01776 38088 ft 567 kts 122°
2026-04-25 18:47 26.97116 -39.93986 38092 ft 567 kts 120°
2026-04-25 18:47 26.93436 -39.86128 38096 ft 568 kts 120°
2026-04-25 18:48 26.89785 -39.78320 38096 ft 569 kts 120°
2026-04-25 18:48 26.86105 -39.70473 38092 ft 568 kts 120°
2026-04-25 18:49 26.82437 -39.62693 38094 ft 569 kts 119°
2026-04-25 18:49 26.78756 -39.54877 38093 ft 569 kts 120°
2026-04-25 18:50 26.75046 -39.47033 38092 ft 570 kts 119°
2026-04-25 18:50 26.71328 -39.39173 38090 ft 570 kts 119°
2026-04-25 18:51 26.68234 -39.32641 38089 ft 569 kts 120°
2026-04-25 18:51 26.63866 -39.23451 38094 ft 569 kts 121°
2026-04-25 18:52 26.60155 -39.15659 38093 ft 569 kts 120°
2026-04-25 18:52 26.56435 -39.07859 38089 ft 569 kts 120°
2026-04-25 18:53 26.52707 -39.00055 38096 ft 569 kts 120°
2026-04-25 18:53 26.48983 -38.92265 38089 ft 569 kts 120°
2026-04-25 18:54 26.43378 -38.80586 38090 ft 570 kts 120°
2026-04-25 18:55 26.39635 -38.72798 38090 ft 570 kts 120°
2026-04-25 18:55 26.35881 -38.64997 38086 ft 570 kts 120°
2026-04-25 18:56 26.32133 -38.57223 38085 ft 570 kts 120°
2026-04-25 18:56 26.28373 -38.49441 38090 ft 570 kts 120°
2026-04-25 18:57 26.24614 -38.41679 38088 ft 570 kts 120°
2026-04-25 18:57 26.20848 -38.33911 38081 ft 572 kts 120°
2026-04-25 18:58 26.17073 -38.26140 38088 ft 572 kts 120°
2026-04-25 18:58 26.11392 -38.14462 38089 ft 571 kts 120°
2026-04-25 18:59 26.03814 -37.98957 38095 ft 571 kts 120°
2026-04-25 19:00 25.98101 -37.87284 38091 ft 572 kts 120°
2026-04-25 19:01 25.92395 -37.75679 38094 ft 572 kts 120°
2026-04-25 19:01 25.88561 -37.67886 38088 ft 572 kts 121°
2026-04-25 19:02 25.82785 -37.56176 38090 ft 572 kts 120°
2026-04-25 19:03 25.77694 -37.45874 38089 ft 572 kts 120°
2026-04-25 19:03 25.73202 -37.36808 38090 ft 571 kts 120°
2026-04-25 19:04 25.67995 -37.26328 38087 ft 572 kts 120°
2026-04-25 19:05 25.60318 -37.10908 38089 ft 571 kts 120°
2026-04-25 19:06 25.56470 -37.03197 38089 ft 571 kts 120°
2026-04-25 19:06 25.51657 -36.93578 38083 ft 572 kts 120°
2026-04-25 19:07 25.45844 -36.81977 38092 ft 571 kts 120°
2026-04-25 19:08 25.40061 -36.70476 38096 ft 572 kts 120°
2026-04-25 19:09 25.32973 -36.56410 38094 ft 571 kts 120°
2026-04-25 19:10 25.26525 -36.43648 38093 ft 572 kts 120°
2026-04-25 19:10 25.22642 -36.35990 38098 ft 572 kts 120°
2026-04-25 19:11 25.18745 -36.28323 38088 ft 572 kts 120°
2026-04-25 19:11 25.14838 -36.20628 38099 ft 572 kts 120°
2026-04-25 19:12 25.10923 -36.12941 38089 ft 572 kts 120°
2026-04-25 19:12 25.07021 -36.05290 38093 ft 572 kts 121°
2026-04-25 19:13 25.03074 -35.97566 38088 ft 573 kts 120°
2026-04-25 19:13 24.99165 -35.89925 38088 ft 572 kts 120°
2026-04-25 19:14 24.95255 -35.82287 38085 ft 572 kts 120°
2026-04-25 19:14 24.91328 -35.74627 38089 ft 572 kts 120°
2026-04-25 19:15 24.88062 -35.68280 38086 ft 572 kts 120°
2026-04-25 19:15 24.83483 -35.59393 38084 ft 572 kts 120°
2026-04-25 19:16 24.79555 -35.51774 38088 ft 572 kts 121°
2026-04-25 19:16 24.75711 -35.44335 38087 ft 571 kts 120°
2026-04-25 19:17 24.71768 -35.36706 38088 ft 571 kts 120°
2026-04-25 19:17 24.67818 -35.29084 38087 ft 571 kts 120°
2026-04-25 19:18 24.63878 -35.21500 38087 ft 571 kts 121°
2026-04-25 19:18 24.59952 -35.13947 38089 ft 570 kts 121°
2026-04-25 19:19 24.56014 -35.06391 38090 ft 570 kts 121°
2026-04-25 19:19 24.52068 -34.98827 38088 ft 571 kts 121°
2026-04-25 19:20 24.48095 -34.91230 38091 ft 571 kts 121°
2026-04-25 19:20 24.44155 -34.83694 38091 ft 571 kts 121°
2026-04-25 19:21 24.40174 -34.76093 38090 ft 570 kts 121°
2026-04-25 19:21 24.34226 -34.64766 38091 ft 570 kts 121°
2026-04-25 19:22 24.30254 -34.57229 38092 ft 571 kts 120°
2026-04-25 19:23 24.24323 -34.45970 38091 ft 570 kts 121°
2026-04-25 19:23 24.18349 -34.34662 38090 ft 571 kts 121°
2026-04-25 19:24 24.14371 -34.27141 38090 ft 571 kts 121°
2026-04-25 19:25 24.06423 -34.12155 38092 ft 571 kts 121°
2026-04-25 19:25 24.02432 -34.04637 38091 ft 571 kts 122°
2026-04-25 19:26 23.98372 -33.97110 38091 ft 571 kts 123°
2026-04-25 19:26 23.94131 -33.89751 38092 ft 571 kts 124°
2026-04-25 19:27 23.90611 -33.83691 38092 ft 571 kts 123°
2026-04-25 19:27 23.85655 -33.75094 38089 ft 571 kts 123°
2026-04-25 19:28 23.81468 -33.67820 38090 ft 571 kts 123°
2026-04-25 19:28 23.77234 -33.60476 38090 ft 570 kts 123°
2026-04-25 19:29 23.72994 -33.53133 38090 ft 570 kts 124°
2026-04-25 19:29 23.68782 -33.45835 38090 ft 569 kts 123°
2026-04-25 19:30 23.64563 -33.38553 38091 ft 569 kts 123°
2026-04-25 19:30 23.60359 -33.31296 38084 ft 569 kts 123°
2026-04-25 19:31 23.56128 -33.24004 38090 ft 569 kts 124°
2026-04-25 19:31 23.51901 -33.16731 38091 ft 568 kts 124°
2026-04-25 19:32 23.47657 -33.09449 38091 ft 569 kts 124°
2026-04-25 19:32 23.44115 -33.03373 38091 ft 568 kts 123°
2026-04-25 19:33 23.39173 -32.94902 38091 ft 568 kts 124°
2026-04-25 19:33 23.34934 -32.87647 38091 ft 568 kts 123°
2026-04-25 19:34 23.30674 -32.80373 38091 ft 567 kts 124°
2026-04-25 19:34 23.26445 -32.73161 38091 ft 567 kts 124°
2026-04-25 19:35 23.22195 -32.65923 38090 ft 567 kts 123°
2026-04-25 19:35 23.17946 -32.58694 38091 ft 567 kts 123°
2026-04-25 19:36 23.13697 -32.51474 38091 ft 566 kts 124°
2026-04-25 19:36 23.09481 -32.44324 38091 ft 566 kts 124°
2026-04-25 19:37 23.05221 -32.37116 38090 ft 566 kts 123°
2026-04-25 19:37 23.00951 -32.29891 38087 ft 566 kts 124°
2026-04-25 19:38 22.96698 -32.22708 38090 ft 566 kts 124°
2026-04-25 19:38 22.92460 -32.15554 38090 ft 565 kts 124°
2026-04-25 19:39 22.88204 -32.08390 38084 ft 564 kts 124°
2026-04-25 19:39 22.83955 -32.01242 38089 ft 564 kts 124°
2026-04-25 19:40 22.79707 -31.94106 38089 ft 564 kts 124°
2026-04-25 19:40 22.75452 -31.86970 38089 ft 565 kts 124°
2026-04-25 19:41 22.71174 -31.79803 38091 ft 564 kts 124°
2026-04-25 19:41 22.67602 -31.73832 38088 ft 564 kts 124°
2026-04-25 19:42 22.62609 -31.65485 38093 ft 564 kts 124°
2026-04-25 19:42 22.58360 -31.58400 38091 ft 564 kts 124°
2026-04-25 19:43 22.54076 -31.51265 38090 ft 564 kts 124°
2026-04-25 19:43 22.49809 -31.44158 38090 ft 563 kts 124°
2026-04-25 19:44 22.45533 -31.37055 38092 ft 562 kts 125°
2026-04-25 19:44 22.41267 -31.29980 38090 ft 562 kts 125°
2026-04-25 19:45 22.37002 -31.22909 38088 ft 561 kts 125°
2026-04-25 19:45 22.32720 -31.15827 38090 ft 561 kts 125°
2026-04-25 19:46 22.28445 -31.08760 38091 ft 560 kts 125°
2026-04-25 19:46 22.24171 -31.01711 38088 ft 560 kts 125°
2026-04-25 19:47 22.19923 -30.94704 38090 ft 559 kts 125°
2026-04-25 19:47 22.15660 -30.87692 38091 ft 560 kts 125°
2026-04-25 19:48 22.11344 -30.80596 38090 ft 559 kts 125°
2026-04-25 19:48 22.07067 -30.73570 38091 ft 559 kts 125°
2026-04-25 19:49 22.03513 -30.67741 38090 ft 558 kts 125°
2026-04-25 19:49 21.98531 -30.59581 38090 ft 558 kts 125°
2026-04-25 19:50 21.92141 -30.49135 38086 ft 557 kts 125°
2026-04-25 19:51 21.87870 -30.42166 38084 ft 557 kts 125°
2026-04-25 19:51 21.83571 -30.35153 38083 ft 557 kts 125°
2026-04-25 19:52 21.79287 -30.28174 38082 ft 557 kts 126°
2026-04-25 19:52 21.75032 -30.21259 38080 ft 556 kts 126°
2026-04-25 19:53 21.70769 -30.14331 38077 ft 556 kts 126°
2026-04-25 19:53 21.66476 -30.07367 38071 ft 555 kts 126°
2026-04-25 19:54 21.62235 -30.00493 38069 ft 556 kts 125°
2026-04-25 19:54 21.57935 -29.93527 38070 ft 555 kts 126°
2026-04-25 19:55 21.53673 -29.86630 38069 ft 556 kts 126°
2026-04-25 19:55 21.49357 -29.79665 38067 ft 555 kts 126°
2026-04-25 19:56 21.44939 -29.72904 38070 ft 554 kts 128°
2026-04-25 19:56 21.40405 -29.66112 38068 ft 554 kts 128°
2026-04-25 19:57 21.35927 -29.59371 38065 ft 553 kts 128°
2026-04-25 19:57 21.31459 -29.52629 38065 ft 553 kts 128°
2026-04-25 19:58 21.26995 -29.45892 38062 ft 552 kts 127°
2026-04-25 19:58 21.22534 -29.39162 38056 ft 552 kts 128°
2026-04-25 19:59 21.18051 -29.32408 38051 ft 552 kts 128°
2026-04-25 19:59 21.13609 -29.25726 38055 ft 552 kts 128°
2026-04-25 20:00 21.09161 -29.19042 38052 ft 551 kts 128°
2026-04-25 20:00 21.04723 -29.12382 38055 ft 551 kts 128°
2026-04-25 20:01 20.98045 -29.02381 38062 ft 551 kts 128°
2026-04-25 20:01 20.93578 -28.95694 38067 ft 550 kts 128°
2026-04-25 20:02 20.89131 -28.89051 38067 ft 550 kts 128°
2026-04-25 20:02 20.84684 -28.82411 38066 ft 549 kts 128°
2026-04-25 20:03 20.80198 -28.75718 38066 ft 549 kts 128°
2026-04-25 20:03 20.75760 -28.69111 38063 ft 549 kts 128°
2026-04-25 20:04 20.71309 -28.62490 38059 ft 548 kts 128°
2026-04-25 20:04 20.66846 -28.55861 38057 ft 548 kts 128°
2026-04-25 20:05 20.62405 -28.49265 38056 ft 547 kts 128°
2026-04-25 20:05 20.57932 -28.42639 38055 ft 547 kts 128°
2026-04-25 20:06 20.53494 -28.36064 38054 ft 547 kts 128°
2026-04-25 20:06 20.49036 -28.29474 38052 ft 547 kts 128°
2026-04-25 20:07 20.44556 -28.22853 38053 ft 547 kts 128°
2026-04-25 20:07 20.40110 -28.16292 38052 ft 546 kts 129°
2026-04-25 20:08 20.35668 -28.09745 38050 ft 546 kts 128°
2026-04-25 20:08 20.31218 -28.03196 38050 ft 546 kts 129°
2026-04-25 20:09 20.26779 -27.96664 38050 ft 544 kts 129°
2026-04-25 20:09 20.22301 -27.90086 38044 ft 543 kts 129°
2026-04-25 20:10 20.17889 -27.83614 38037 ft 543 kts 129°
2026-04-25 20:10 20.13454 -27.77112 38034 ft 543 kts 129°
2026-04-25 20:11 20.09005 -27.70598 38035 ft 543 kts 129°
2026-04-25 20:11 20.04579 -27.64130 38031 ft 542 kts 128°
2026-04-25 20:12 20.00140 -27.57647 38030 ft 543 kts 128°
2026-04-25 20:12 19.96429 -27.52235 38030 ft 543 kts 128°
2026-04-25 20:13 19.91229 -27.44650 38029 ft 542 kts 128°
2026-04-25 20:13 19.86802 -27.38204 38029 ft 542 kts 128°
2026-04-25 20:14 19.82363 -27.31747 38026 ft 540 kts 129°
2026-04-25 20:14 19.77940 -27.25320 38029 ft 539 kts 129°
2026-04-25 20:15 19.73531 -27.18920 38029 ft 540 kts 129°
2026-04-25 20:15 19.69104 -27.12502 38029 ft 538 kts 129°
2026-04-25 20:16 19.64690 -27.06109 38029 ft 538 kts 129°
2026-04-25 20:16 19.60281 -26.99728 38029 ft 537 kts 129°
2026-04-25 20:17 19.55853 -26.93329 38029 ft 537 kts 129°
2026-04-25 20:17 19.51434 -26.86951 38028 ft 537 kts 129°
2026-04-25 20:18 19.47025 -26.80590 38027 ft 536 kts 129°
2026-04-25 20:18 19.42596 -26.74207 38027 ft 535 kts 129°
2026-04-25 20:19 19.38192 -26.67869 38026 ft 534 kts 129°
2026-04-25 20:19 19.33794 -26.61546 38025 ft 534 kts 129°
2026-04-25 20:20 19.29386 -26.55213 38023 ft 532 kts 129°
2026-04-25 20:20 19.24978 -26.48886 38023 ft 533 kts 129°
2026-04-25 20:21 19.20561 -26.42557 38020 ft 532 kts 129°
2026-04-25 20:21 19.16182 -26.36280 38017 ft 531 kts 129°
2026-04-25 20:22 19.12528 -26.31055 38011 ft 531 kts 129°
2026-04-25 20:22 19.07436 -26.23779 38010 ft 530 kts 129°
2026-04-25 20:23 19.03022 -26.17473 38010 ft 530 kts 129°
2026-04-25 20:23 18.98771 -26.11399 38011 ft 530 kts 129°
2026-04-25 20:24 18.94389 -26.05148 38012 ft 529 kts 129°
2026-04-25 20:24 18.90048 -25.98913 38012 ft 529 kts 129°
2026-04-25 20:25 18.85683 -25.92616 38012 ft 529 kts 129°
2026-04-25 20:25 18.81342 -25.86356 38009 ft 528 kts 129°
2026-04-25 20:26 18.77003 -25.80105 38008 ft 528 kts 129°
2026-04-25 20:26 18.72685 -25.73894 38009 ft 528 kts 129°
2026-04-25 20:27 18.68315 -25.67612 38008 ft 527 kts 129°
2026-04-25 20:27 18.63999 -25.61413 38005 ft 526 kts 129°
2026-04-25 20:28 18.59655 -25.55182 38005 ft 526 kts 129°
2026-04-25 20:28 18.55321 -25.48972 38003 ft 525 kts 129°
2026-04-25 20:29 18.51020 -25.42814 38004 ft 524 kts 129°
2026-04-25 20:29 18.46687 -25.36615 38002 ft 524 kts 129°
2026-04-25 20:30 18.42354 -25.30422 37997 ft 524 kts 129°
2026-04-25 20:30 18.38007 -25.24219 37997 ft 523 kts 129°
2026-04-25 20:31 18.33666 -25.18026 37999 ft 523 kts 129°
2026-04-25 20:31 18.29323 -25.11837 37995 ft 523 kts 129°
2026-04-25 20:32 18.25014 -25.05705 37991 ft 522 kts 129°
2026-04-25 20:32 18.20704 -24.99570 37993 ft 521 kts 129°
2026-04-25 20:33 18.16372 -24.93413 37991 ft 521 kts 129°
2026-04-25 20:33 18.12783 -24.88321 37990 ft 521 kts 129°
2026-04-25 20:34 18.07731 -24.81158 37989 ft 521 kts 129°
2026-04-25 20:34 18.03426 -24.75057 37989 ft 521 kts 129°
2026-04-25 20:35 17.99091 -24.68916 37988 ft 520 kts 129°
2026-04-25 20:35 17.94773 -24.62809 37987 ft 520 kts 129°
2026-04-25 20:36 17.90457 -24.56707 37988 ft 519 kts 129°
2026-04-25 20:36 17.86116 -24.50578 37987 ft 519 kts 129°
2026-04-25 20:37 17.81800 -24.44487 37986 ft 520 kts 129°
2026-04-25 20:37 17.77499 -24.38416 37985 ft 520 kts 129°
2026-04-25 20:38 17.73155 -24.32290 37981 ft 520 kts 129°
2026-04-25 20:38 17.68802 -24.26212 37983 ft 520 kts 130°
2026-04-25 20:39 17.64445 -24.20183 37983 ft 520 kts 130°
2026-04-25 20:39 17.60797 -24.15131 37982 ft 519 kts 130°
2026-04-25 20:40 17.55708 -24.08074 37984 ft 520 kts 129°
2026-04-25 20:40 17.51337 -24.02017 37982 ft 520 kts 129°
2026-04-25 20:41 17.46988 -23.95993 37988 ft 520 kts 129°
2026-04-25 20:41 17.42615 -23.89939 37986 ft 519 kts 130°
2026-04-25 20:42 17.38258 -23.83917 37983 ft 519 kts 129°
2026-04-25 20:42 17.33892 -23.77886 37979 ft 519 kts 129°
2026-04-25 20:43 17.29508 -23.71836 37977 ft 518 kts 130°
2026-04-25 20:43 17.25164 -23.65848 37981 ft 518 kts 129°
2026-04-25 20:44 17.20783 -23.59810 37987 ft 517 kts 130°
2026-04-25 20:44 17.16446 -23.53837 37988 ft 517 kts 130°
2026-04-25 20:45 17.12109 -23.47875 37989 ft 517 kts 129°
2026-04-25 20:45 17.07758 -23.41886 37987 ft 517 kts 130°
2026-04-25 20:46 17.03399 -23.35898 37986 ft 516 kts 130°
2026-04-25 20:46 16.99035 -23.29908 37983 ft 516 kts 130°
2026-04-25 20:47 16.94694 -23.23954 37986 ft 514 kts 130°
2026-04-25 20:47 16.90382 -23.18047 37977 ft 514 kts 130°
2026-04-25 20:48 16.86016 -23.12067 37970 ft 514 kts 130°
2026-04-25 20:48 16.81697 -23.06151 37962 ft 513 kts 130°
2026-04-25 20:49 16.77427 -23.00181 37960 ft 514 kts 127°
2026-04-25 20:49 16.73681 -22.93768 37959 ft 516 kts 120°
2026-04-25 20:50 16.70702 -22.86965 37960 ft 518 kts 112°
2026-04-25 20:50 16.68251 -22.79927 37964 ft 518 kts 111°
2026-04-25 20:51 16.65803 -22.72797 37963 ft 518 kts 111°
2026-04-25 20:51 16.63362 -22.65761 37964 ft 518 kts 111°
2026-04-25 20:52 16.61309 -22.59874 37965 ft 519 kts 111°
2026-04-25 20:52 16.58426 -22.51630 37963 ft 519 kts 111°
2026-04-25 20:53 16.55958 -22.44580 37964 ft 519 kts 111°
2026-04-25 20:53 16.53489 -22.37540 37963 ft 519 kts 111°
2026-04-25 20:54 16.51010 -22.30476 37960 ft 519 kts 111°
2026-04-25 20:54 16.48539 -22.23444 37961 ft 519 kts 111°
2026-04-25 20:55 16.45290 -22.16822 37961 ft 514 kts 124°
2026-04-25 20:55 16.41506 -22.10490 37960 ft 514 kts 124°
2026-04-25 20:56 16.37767 -22.04174 37957 ft 514 kts 124°
2026-04-25 20:56 16.34066 -21.97839 37958 ft 514 kts 123°
2026-04-25 20:57 16.30348 -21.91448 37954 ft 513 kts 123°
2026-04-25 20:57 16.26669 -21.85121 37952 ft 513 kts 123°
2026-04-25 20:58 16.22970 -21.78765 37943 ft 513 kts 123°
2026-04-25 20:58 16.19290 -21.72449 37945 ft 513 kts 123°
2026-04-25 20:59 16.15583 -21.66091 37945 ft 515 kts 123°
2026-04-25 20:59 16.11870 -21.59728 37941 ft 515 kts 123°
2026-04-25 21:00 16.09380 -21.55463 37940 ft 515 kts 123°
2026-04-25 21:01 16.02595 -21.43854 37939 ft 513 kts 123°
2026-04-25 21:01 15.98893 -21.37531 37937 ft 513 kts 123°
2026-04-25 21:02 15.95158 -21.31156 37931 ft 512 kts 123°
2026-04-25 21:02 15.91471 -21.24865 37936 ft 512 kts 124°
2026-04-25 21:03 15.87762 -21.18541 37941 ft 512 kts 124°
2026-04-25 21:03 15.84041 -21.12208 37946 ft 512 kts 124°
2026-04-25 21:04 15.80316 -21.05872 37947 ft 512 kts 124°
2026-04-25 21:04 15.76615 -20.99582 37946 ft 511 kts 124°
2026-04-25 21:05 15.72912 -20.93292 37947 ft 511 kts 124°
2026-04-25 21:05 15.69203 -20.86999 37946 ft 511 kts 124°
2026-04-25 21:06 15.65478 -20.80685 37946 ft 511 kts 124°
2026-04-25 21:06 15.61748 -20.74368 37944 ft 510 kts 123°
2026-04-25 21:07 15.58057 -20.68125 37940 ft 510 kts 123°
2026-04-25 21:07 15.54353 -20.61857 37934 ft 510 kts 123°
2026-04-25 21:08 15.50621 -20.55550 37928 ft 510 kts 123°
2026-04-25 21:08 15.46905 -20.49274 37923 ft 510 kts 123°
2026-04-25 21:09 15.41351 -20.39908 37919 ft 509 kts 123°
2026-04-25 21:09 15.37626 -20.33632 37917 ft 509 kts 123°
2026-04-25 21:10 15.33924 -20.27400 37917 ft 508 kts 123°
2026-04-25 21:10 15.30215 -20.21166 37917 ft 508 kts 123°
2026-04-25 21:11 15.26520 -20.14953 37914 ft 507 kts 123°
2026-04-25 21:11 15.22827 -20.08744 37912 ft 507 kts 123°
2026-04-25 21:12 15.19132 -20.02541 37910 ft 506 kts 123°
2026-04-25 21:12 15.16053 -19.97378 37908 ft 505 kts 123°
2026-04-25 21:13 15.11725 -19.90127 37906 ft 505 kts 123°
2026-04-25 21:13 15.08008 -19.83907 37906 ft 507 kts 123°
2026-04-25 21:14 15.04287 -19.77683 37902 ft 507 kts 123°
2026-04-25 21:14 15.00561 -19.71456 37898 ft 507 kts 123°
2026-04-25 21:15 14.96848 -19.65254 37899 ft 507 kts 123°
2026-04-25 21:15 14.93141 -19.59069 37897 ft 505 kts 123°
2026-04-25 21:16 14.89413 -19.52856 37895 ft 505 kts 123°
2026-04-25 21:16 14.85720 -19.46703 37893 ft 505 kts 123°
2026-04-25 21:17 14.82010 -19.40527 37893 ft 505 kts 123°
2026-04-25 21:17 14.78309 -19.34367 37891 ft 505 kts 123°
2026-04-25 21:18 14.74559 -19.28136 37891 ft 506 kts 123°
2026-04-25 21:18 14.70856 -19.21987 37897 ft 505 kts 123°
2026-04-25 21:19 14.67145 -19.15829 37903 ft 505 kts 123°
2026-04-25 21:19 14.63421 -19.09655 37905 ft 505 kts 123°
2026-04-25 21:20 14.60330 -19.04532 37904 ft 505 kts 123°
2026-04-25 21:20 14.55997 -18.97357 37904 ft 504 kts 123°
2026-04-25 21:21 14.52269 -18.91189 37904 ft 504 kts 123°
2026-04-25 21:21 14.50400 -18.88101 37788 ft 502 kts 123°
2026-04-25 21:21 14.48550 -18.85044 37057 ft 506 kts 123°
2026-04-25 21:22 14.46693 -18.81979 35896 ft 513 kts 123°
2026-04-25 21:22 14.44794 -18.78848 34522 ft 519 kts 122°
2026-04-25 21:22 14.42898 -18.75721 33065 ft 520 kts 122°
2026-04-25 21:22 14.40987 -18.72569 32135 ft 509 kts 122°
2026-04-25 21:23 14.39137 -18.69518 31414 ft 501 kts 122°
2026-04-25 21:23 14.37286 -18.66464 30771 ft 503 kts 122°
2026-04-25 21:23 14.35439 -18.63417 30163 ft 503 kts 121°
2026-04-25 21:23 14.33585 -18.60360 29782 ft 498 kts 121°
2026-04-25 21:24 14.31748 -18.57331 29415 ft 492 kts 121°
2026-04-25 21:24 14.29963 -18.54390 29064 ft 487 kts 121°
2026-04-25 21:24 14.28171 -18.51440 28738 ft 482 kts 121°
2026-04-25 21:24 14.26392 -18.48510 28415 ft 476 kts 121°
2026-04-25 21:25 14.24668 -18.45670 28124 ft 469 kts 121°
2026-04-25 21:25 14.22940 -18.42824 27807 ft 463 kts 121°
2026-04-25 21:25 14.21250 -18.40042 27428 ft 460 kts 121°
2026-04-25 21:25 14.19552 -18.37247 27059 ft 456 kts 121°
2026-04-25 21:26 14.17874 -18.34490 26690 ft 453 kts 121°
2026-04-25 21:26 14.16204 -18.31744 26313 ft 449 kts 121°
2026-04-25 21:26 14.14568 -18.29059 25943 ft 445 kts 122°
2026-04-25 21:26 14.12900 -18.26321 25585 ft 441 kts 121°
2026-04-25 21:27 14.11264 -18.23635 25221 ft 438 kts 121°
2026-04-25 21:27 14.09653 -18.20990 24860 ft 434 kts 122°
2026-04-25 21:27 14.08059 -18.18372 24511 ft 430 kts 122°
2026-04-25 21:27 14.06487 -18.15790 24144 ft 427 kts 122°
2026-04-25 21:28 14.04907 -18.13197 23784 ft 424 kts 122°
2026-04-25 21:28 14.03365 -18.10666 23453 ft 420 kts 122°
2026-04-25 21:28 14.01811 -18.08119 23103 ft 417 kts 122°
2026-04-25 21:28 14.00273 -18.05601 22760 ft 413 kts 122°
2026-04-25 21:29 13.98996 -18.02978 22366 ft 410 kts 106°
2026-04-25 21:29 13.98613 -18.00124 21891 ft 409 kts 86°
2026-04-25 21:29 13.99160 -17.97288 21535 ft 403 kts 68°
2026-04-25 21:29 14.00517 -17.94789 21144 ft 398 kts 52°
2026-04-25 21:30 14.02193 -17.92540 20773 ft 396 kts 51°
2026-04-25 21:30 14.03898 -17.90270 20394 ft 394 kts 51°
2026-04-25 21:30 14.05545 -17.88061 20019 ft 392 kts 51°
2026-04-25 21:30 14.06651 -17.86567 19763 ft 391 kts 51°
2026-04-25 21:31 14.08826 -17.83616 19259 ft 388 kts 51°
2026-04-25 21:31 14.10452 -17.81400 18879 ft 386 kts 51°
2026-04-25 21:31 14.12082 -17.79175 18487 ft 384 kts 51°
2026-04-25 21:31 14.13683 -17.76985 18106 ft 382 kts 51°
2026-04-25 21:32 14.15289 -17.74787 17719 ft 381 kts 51°
2026-04-25 21:32 14.16866 -17.72629 17343 ft 379 kts 51°
2026-04-25 21:32 14.18443 -17.70472 16967 ft 377 kts 51°
2026-04-25 21:32 14.20025 -17.68306 16601 ft 375 kts 51°
2026-04-25 21:33 14.21579 -17.66177 16241 ft 373 kts 51°
2026-04-25 21:33 14.23154 -17.64020 15873 ft 371 kts 52°
2026-04-25 21:33 14.24702 -17.61897 15517 ft 369 kts 52°
2026-04-25 21:33 14.26233 -17.59796 15161 ft 367 kts 52°
2026-04-25 21:34 14.27764 -17.57698 14799 ft 365 kts 52°
2026-04-25 21:34 14.29304 -17.55584 14464 ft 362 kts 52°
2026-04-25 21:34 14.30822 -17.53501 14116 ft 360 kts 53°
2026-04-25 21:34 14.32328 -17.51433 13759 ft 358 kts 53°
2026-04-25 21:35 14.33822 -17.49380 13392 ft 356 kts 53°
2026-04-25 21:35 14.35313 -17.47330 13032 ft 354 kts 53°
2026-04-25 21:35 14.36776 -17.45319 12664 ft 353 kts 53°
2026-04-25 21:35 14.38250 -17.43292 12316 ft 350 kts 53°
2026-04-25 21:36 14.39697 -17.41303 11924 ft 344 kts 53°
2026-04-25 21:36 14.41116 -17.39352 11406 ft 332 kts 53°
2026-04-25 21:36 14.42462 -17.37500 11029 ft 319 kts 53°
2026-04-25 21:36 14.43782 -17.35683 10713 ft 311 kts 53°
2026-04-25 21:37 14.45069 -17.33910 10471 ft 298 kts 53°
2026-04-25 21:37 14.45885 -17.32785 10463 ft 292 kts 53°
2026-04-25 21:37 14.47352 -17.30445 10397 ft 293 kts 71°
2026-04-25 21:37 14.47624 -17.28368 10308 ft 290 kts 98°
2026-04-25 21:38 14.47012 -17.26436 10129 ft 285 kts 122°
2026-04-25 21:38 14.45733 -17.24911 9987 ft 283 kts 141°
2026-04-25 21:38 14.44196 -17.23626 9843 ft 281 kts 140°
2026-04-25 21:38 14.42799 -17.22254 9649 ft 278 kts 133°
2026-04-25 21:39 14.41572 -17.20698 9462 ft 275 kts 126°
2026-04-25 21:39 14.40555 -17.19071 9285 ft 271 kts 124°
2026-04-25 21:39 14.39361 -17.17568 8967 ft 273 kts 135°
2026-04-25 21:39 14.37972 -17.16221 8359 ft 277 kts 138°
2026-04-25 21:40 14.36528 -17.14904 7843 ft 273 kts 139°
2026-04-25 21:40 14.35103 -17.13643 7291 ft 271 kts 139°
2026-04-25 21:40 14.33665 -17.12377 6710 ft 270 kts 134°
2026-04-25 21:40 14.32624 -17.10832 6111 ft 267 kts 106°
2026-04-25 21:41 14.32358 -17.08950 5529 ft 262 kts 88°
2026-04-25 21:41 14.32417 -17.07087 4952 ft 261 kts 85°
2026-04-25 21:41 14.32530 -17.05255 4372 ft 259 kts 82°
2026-04-25 21:41 14.33047 -17.03512 3761 ft 252 kts 50°
2026-04-25 21:42 14.34365 -17.02398 3219 ft 245 kts 23°
2026-04-25 21:42 14.35990 -17.02025 2891 ft 233 kts 357°
2026-04-25 21:42 14.37513 -17.02350 2875 ft 223 kts 344°
2026-04-25 21:42 14.39005 -17.02847 2909 ft 225 kts 343°
2026-04-25 21:43 14.40484 -17.03352 2880 ft 223 kts 343°
2026-04-25 21:43 14.41976 -17.03867 2872 ft 223 kts 343°
2026-04-25 21:43 14.43443 -17.04375 2861 ft 217 kts 343°
2026-04-25 21:43 14.44856 -17.04957 2720 ft 216 kts 338°
2026-04-25 21:44 14.46276 -17.05553 2829 ft 216 kts 341°
2026-04-25 21:44 14.47638 -17.06028 2960 ft 198 kts 345°
2026-04-25 21:44 14.50110 -17.06767 2967 ft 174 kts 348°
2026-04-25 21:45 14.51299 -17.06994 2953 ft 174 kts 354°
2026-04-25 21:45 14.52117 -17.07076 2857 ft 173 kts 357°
2026-04-25 21:45 14.53684 -17.07147 2549 ft 164 kts 359°
2026-04-25 21:45 14.54806 -17.07163 2329 ft 156 kts
2026-04-25 21:46 14.55858 -17.07172 2133 ft 148 kts
2026-04-25 21:46 14.56891 -17.07181 1941 ft 143 kts
2026-04-25 21:46 14.57864 -17.07190 1758 ft 135 kts 360°
2026-04-25 21:46 14.58773 -17.07199 1587 ft 128 kts 359°
2026-04-25 21:47 14.59676 -17.07209 1432 ft 130 kts 360°
2026-04-25 21:47 14.60599 -17.07210 1269 ft 131 kts
2026-04-25 21:47 14.61502 -17.07229 1113 ft 131 kts 357°
2026-04-25 21:47 14.62426 -17.07256 896 ft 131 kts 359°
2026-04-25 21:48 14.63343 -17.07244 802 ft 133 kts 360°
2026-04-25 21:48 14.64277 -17.07258 563 ft 131 kts 358°
2026-04-25 21:48 14.65207 -17.07266 386 ft 134 kts 359°
2026-04-25 21:48 14.66124 -17.07272 305 ft 120 kts 358°
2026-04-25 21:49 14.66783 -17.07284 304 ft 68 kts 360°
2026-04-25 21:49 14.66988 -17.07284 304 ft 13 kts
2026-04-25 21:49 14.67063 -17.07237 304 ft 13 kts 63°
2026-04-25 21:49 14.67075 -17.07186 304 ft 7 kts 85°
2026-04-25 21:50 14.67076 -17.07173 304 ft 0 kts 88°
2026-04-25 21:53 14.67076 -17.07166 304 ft 3 kts 88°
2026-04-25 21:53 14.67077 -17.07129 304 ft 6 kts 89°
2026-04-25 21:53 14.67077 -17.07077 305 ft 7 kts 90°
2026-04-25 21:53 14.67078 -17.07015 305 ft 9 kts 90°
2026-04-25 21:54 14.67078 -17.06943 305 ft 10 kts 89°
2026-04-25 21:54 14.67078 -17.06866 305 ft 3 kts 90°
2026-04-25 21:54 14.67079 -17.06856 305 ft 0 kts 89°